User: anonymous   Login
Location: Unspecified
(0.0000°N, 0.0000°E)
Time: 05:31:08
(UTC+00:00)
Language:

TABLETSAT AURORA - Orbit

View from above orbital plane
View from above orbital plane
View from above satellite
View from above satellite

Ground track
Ground track

The orbit data is extracted from the following two-line orbital elements,

1 40017U 14033H   17177.92337827 +.00000528 +00000-0 +56654-4 0  9992
2 40017 097.9437 098.5461 0022383 297.3428 062.5512 14.92786053164411
Epoch (UTC): 26 June 2017 22:09:39
Eccentricity: 0.0022383
inclination: 97.9437°
perigee height: 573 km
apogee height: 605 km
right ascension of ascending node: 98.5461°
argument of perigee: 297.3428°
revolutions per day: 14.92786053
mean anomaly at epoch: 62.5512°
orbit number at epoch: 16441

The dashed part of the orbit path shows where the satellite is in the earth's shadow,  

DLR